{"data":{"norad_id":61520,"intl_designator":"2024-183M","name":"STARLINK-32306","alt_names":[],"object_type":"PAYLOAD","status":"ACTIVE","operator":null,"country":"US","launch_date":"2024-10-15","launch_site_code":"AFETR","launch_vehicle":null,"mission":null,"orbit_class":"UNKNOWN","rcs_meters":null,"size_class":null,"mass_kg":null,"dimensions":null,"purposes":["comms"],"wikipedia_slug":null,"has_3d_model":false,"image_url":null,"decayed_at":null,"tle_current":{"epoch":"2026-05-25T00:46:32.353824Z","epoch_age_seconds":76273,"freshness":"FRESH","line1":"1 61520U 24183M   26145.03231891  .00000982  00000+0  45284-4 0  9992","line2":"2 61520  53.1594 147.6358 0001540  80.1665 279.9510 15.30196760 91341","mean_motion":15.3019676,"eccentricity":0.000154,"inclination_deg":53.1594,"raan_deg":147.6358,"arg_perigee_deg":80.1665,"mean_anomaly_deg":279.951,"bstar":4.5284e-5,"rev_number":9134,"period_min":94.105544962728,"perigee_km":474.16932578388,"apogee_km":476.28016120088,"semimajor_km":6853.3617434924,"source":"CELESTRAK","updated_at":"2026-05-25T13:38:19.393354Z"}}}